TimePDT,TemperatureF,Dew PointF,Humidity,Sea Level PressureIn,VisibilityMPH,Wind Direction,Wind SpeedMPH,Gust SpeedMPH,PrecipitationIn,Events,Conditions,WindDirDegrees,DateUTC
12:53 AM,48.9,35.1,59,29.97,8.0,Calm,Calm,-,N/A,,Clear,0,2012-10-10 07:53:00
1:53 AM,43.0,34.0,71,29.98,10.0,NE,3.5,-,N/A,,Clear,40,2012-10-10 08:53:00
2:53 AM,42.1,33.1,70,29.97,10.0,Calm,Calm,-,N/A,,Clear,0,2012-10-10 09:53:00
3:53 AM,39.9,32.0,73,29.96,9.0,ENE,3.5,-,N/A,,Clear,60,2012-10-10 10:53:00
4:53 AM,39.0,30.9,73,29.96,10.0,Calm,Calm,-,N/A,,Clear,0,2012-10-10 11:53:00
5:53 AM,37.9,30.9,76,29.96,10.0,NNW,4.6,-,N/A,,Clear,340,2012-10-10 12:53:00
6:53 AM,37.0,30.9,79,29.97,9.0,Calm,Calm,-,N/A,,Clear,0,2012-10-10 13:53:00
7:53 AM,41.0,34.0,76,29.97,10.0,Calm,Calm,-,N/A,,Clear,0,2012-10-10 14:53:00
8:53 AM,48.9,37.0,64,29.96,10.0,Calm,Calm,-,N/A,,Clear,0,2012-10-10 15:53:00
9:53 AM,54.0,39.0,57,29.95,10.0,Calm,Calm,-,N/A,,Clear,0,2012-10-10 16:53:00
10:53 AM,59.0,41.0,51,29.93,10.0,Variable,4.6,-,N/A,,Clear,0,2012-10-10 17:53:00
11:53 AM,66.0,41.0,40,29.91,10.0,SSE,3.5,-,N/A,,Clear,160,2012-10-10 18:53:00
12:53 PM,73.9,41.0,30,29.87,10.0,Variable,4.6,-,N/A,,Clear,0,2012-10-10 19:53:00
1:48 PM,78.8,37.4,23,29.85,1.8,WNW,13.8,19.6,N/A,,Haze,300,2012-10-10 20:48:00
1:53 PM,80.1,35.1,20,29.83,1.8,NW,18.4,24.2,N/A,,Haze,310,2012-10-10 20:53:00
2:02 PM,78.8,35.6,21,29.85,10.0,NW,18.4,-,N/A,,Clear,310,2012-10-10 21:02:00
2:53 PM,79.0,34.0,20,29.82,10.0,NW,19.6,24.2,N/A,,Clear,310,2012-10-10 21:53:00
3:53 PM,78.1,32.0,19,29.81,10.0,NW,21.9,27.6,N/A,,Clear,320,2012-10-10 22:53:00
4:53 PM,75.0,34.0,22,29.82,1.8,NW,17.3,-,N/A,,Haze,320,2012-10-10 23:53:00
4:59 PM,75.2,33.8,22,29.83,4.0,NW,19.6,25.3,N/A,,Haze,320,2012-10-10 23:59:00
5:09 PM,73.4,33.8,23,29.83,1.5,NW,17.3,24.2,N/A,,Haze,320,2012-10-11 00:09:00
5:25 PM,73.4,33.8,23,29.83,10.0,NW,17.3,-,N/A,,Clear,320,2012-10-11 00:25:00
5:53 PM,71.1,34.0,26,29.83,2.5,NNW,20.7,-,N/A,,Haze,330,2012-10-11 00:53:00
6:01 PM,69.8,33.8,27,29.83,1.5,NW,19.6,-,N/A,,Haze,320,2012-10-11 01:01:00
6:06 PM,69.8,33.8,27,29.83,3.0,NW,18.4,-,N/A,,Haze,320,2012-10-11 01:06:00
6:53 PM,66.0,33.1,29,29.85,10.0,NNW,16.1,-,N/A,,Clear,330,2012-10-11 01:53:00
7:53 PM,61.0,35.1,38,29.86,10.0,NW,13.8,-,N/A,,Clear,320,2012-10-11 02:53:00
8:53 PM,60.1,37.0,42,29.86,10.0,NW,13.8,-,N/A,,Clear,320,2012-10-11 03:53:00
9:53 PM,57.0,37.0,47,29.88,10.0,WNW,6.9,-,N/A,,Clear,290,2012-10-11 04:53:00
10:53 PM,53.1,34.0,48,29.90,9.0,North,3.5,-,N/A,,Clear,360,2012-10-11 05:53:00
11:53 PM,48.0,34.0,58,29.91,10.0,Calm,Calm,-,N/A,,Clear,0,2012-10-11 06:53:00